Location: Grust
(42.8833°N, 0.0333°W)
Time: 20:11:35
(UTC+00:00)

Cosmos 1939 Rocket - Pass Details

Date: 25 October 2020
Orbit: 532 x 584 km, 97.4° (Epoch: 23 November)

Event Time Altitude Azimuth Distance (km) Brightness Sun altitude
Rises 18:35:55 0° 183° (S) 2,744 6.4 -17.9°
Reaches altitude 10° 18:38:09 10° 190° (S) 1,844 5.6 -18.3°
Maximum altitude 18:41:56 41° 261° (W) 809 4.2 -19.0°
Drops below altitude 10° 18:45:42 10° 333° (NNW) 1,829 5.8 -19.7°
Sets 18:47:55 0° 341° (NNW) 2,719 6.6 -20.1°
